This demonstration page uses our WeatherBlox Daily Observations layout. Learn more.

Left ArrowRight Arrow

Hourly Observations for March 4, 2021

Temp ( °F °C ) Dew Point ( °F °C ) Humidity (%) Winds ( mph kmh ) Pressure ( in mb ) Visibility ( mi km ) Precip ( " mm )
12:53 am 00:53 Clear 31 -0.6 24 -4.4 76 76 N N/A 29.98 1015 10 16 N/A
1:53 am 01:53 Clear 27 -2.8 24 -4.4 89 89 W 5 7 29.99 1016 10 16 N/A
2:53 am 02:53 Clear 27 -2.8 24 -4.4 89 89 N N/A 30.00 1016 10 16 N/A
3:53 am 03:53 Clear 25 -3.9 23 -5 92 92 N N/A 30.02 1017 10 16 N/A
4:53 am 04:53 Clear 26 -3.3 23 -5 88 88 WSW 3 6 30.03 1017 10 16 N/A
5:53 am 05:53 Clear 25 -3.9 22 -5.6 88 88 W 3 6 30.06 1018 10 16 N/A
6:53 am 06:53 Clear 23 -5 20 -6.7 88 88 N N/A 30.08 1019 10 16 N/A
7:53 am 07:53 Sunny 27 -2.8 25 -3.9 92 92 N N/A 30.10 1019 10 16 N/A
8:53 am 08:53 Sunny 32 undefined 28 -2.2 85 85 SW 3 6 30.11 1020 10 16 N/A
9:53 am 09:53 Sunny 36 2.2 29 -1.7 76 76 N N/A 30.11 1020 10 16 N/A
10:53 am 10:53 Sunny 40 4.4 29 -1.7 65 65 W 3 6 30.13 1020 10 16 N/A
11:53 am 11:53 Sunny N/A N/A N/A NW 3 6 N/A N/A N/A
12:53 pm 12:53 Sunny N/A N/A N/A N N/A N/A 10 16 N/A
1:45 pm 13:45 Sunny 51 10.6 32 undefined 48 48 N N/A 30.06 1018 10 16 N/A
1:53 pm 13:53 Sunny 52 11.1 32 undefined 47 47 ESE 3 6 30.13 1020 10 16 N/A
2:53 pm 14:53 Sunny 53 11.7 33 0.6 47 47 SSE 5 7 30.13 1020 10 16 N/A
3:53 pm 15:53 Sunny 55 12.8 32 undefined 42 42 N N/A 30.14 1021 10 16 N/A
4:53 pm 16:53 Sunny 54 12.2 32 undefined 43 43 E 5 7 30.14 1021 10 16 N/A
5:53 pm 17:53 Sunny 48 8.9 32 undefined 54 54 E 7 11 30.16 1021 10 16 N/A
6:53 pm 18:53 Clear 37 2.8 30 -1.1 76 76 ENE 5 7 30.19 1023 10 16 N/A
7:53 pm 19:53 Clear 33 0.6 29 -1.7 85 85 ESE 7 11 30.21 1023 10 16 N/A
8:53 pm 20:53 Clear 32 undefined 27 -2.8 82 82 E 5 7 30.21 1023 10 16 N/A
9:53 pm 21:53 Clear 33 0.6 27 -2.8 78 78 ENE 3 6 30.21 1023 10 16 N/A
10:53 pm 22:53 Clear 30 -1.1 26 -3.3 85 85 E 3 6 30.20 1023 10 16 N/A
11:53 pm 23:53 Clear 29 -1.7 26 -3.3 89 89 N N/A 30.26 1025 10 16 N/A

Powered by AerisWeather